Home   Weather   Guadalajara   Past weeks

Flag for Mexico Past Weather in Guadalajara, Jalisco, Mexico — Yesterday and Last 2 Weeks

Now
88 °F

Sunny.


Feels Like: 84 °F
Forecast: 54 / 91 °F
Wind: 7 mph from Northwest

Location: Don Miguel / Guadalaj

Current Time: Apr 30, 2017 at 7:30:36 pm

Latest Report: Apr 30, 2017 at 6:51 pm


Visibility: 6 mi

Pressure: 29.69 "Hg (24.96 "Hg at 1543m altitude)

Humidity: 8%

Dew Point: 19 °F

Location of GuadalajaraLocation

Past Weather in Guadalajara — Graph

°F

Guadalajara Temperature Yesterday

Maximum temperature yesterday: 88 °F (at 3:41 pm)
Minimum temperature yesterday: 46 °F (at 6:41 am)
Average temperature yesterday: 70 °F

High & Low Weather Summary for the Past Weeks

 TemperatureHumidityPressure
High91 °F (Apr 22, 3:46 pm)73% (Apr 23, 6:08 am)30.22 "Hg (Apr 23, 6:08 am)
Low46 °F (Apr 29, 6:41 am)2% (Apr 27, 1:50 pm)29.56 "Hg (Apr 21, 3:41 pm)
Average72 °F26%29.97 "Hg
* Reported Apr 15 5:43 pm — Apr 30 5:44 pm, Guadalajara, Weather by CustomWeather, © 2017

Note: Actual official high and low records may vary slightly from our data, if they occured in-between our weather recording intervals... More about our weather records

Advertising

Guadalajara Weather History for the Previous 24 Hours

Scroll right to see more
 ConditionsComfort  
Time TempWeatherWind HumidityBarometerVisibility
5:44 pm
Sun, Apr 30
88 °FPassing clouds.12 mph7%30.02 "Hg6 mi
4:48 pm88 °FScattered clouds.12 mph6%30.05 "Hg3 mi
3:40 pm88 °FScattered clouds.5 mph9%29.69 "Hg3 mi
2:44 pm86 °FSunny.7 mph9%30.11 "Hg7 mi
1:49 pm82 °FSunny.9 mph11%30.14 "Hg7 mi
12:44 pm81 °FPassing clouds.3 mph13%29.77 "Hg7 mi
11:48 am77 °FSunny.6 mph19%30.20 "Hg6 mi
10:53 am73 °FSunny.No wind22%30.20 "Hg6 mi
9:49 am68 °FSunny.3 mph35%29.83 "Hg5 mi
8:56 am61 °FSunny.No wind42%30.19 "Hg10 mi
7:44 am48 °FSunny.No wind62%30.16 "Hg8 mi
6:42 am50 °FClear.No wind62%29.80 "Hg10 mi
5:42 am55 °FClear.No wind47%30.13 "Hg10 mi
4:44 am55 °FClear.No wind47%30.13 "Hg10 mi
3:40 am55 °FClear.No wind41%29.78 "Hg10 mi
2:43 am61 °FClear.5 mph36%30.14 "Hg10 mi
1:42 am66 °FClear.2 mph28%30.16 "Hg10 mi
12:49 am66 °FClear.No wind26%29.78 "Hg10 mi
11:42 pm
Sat, Apr 29
66 °FClear.No wind32%30.15 "Hg10 mi
10:40 pm70 °FClear.12 mph25%30.12 "Hg10 mi
9:53 pm72 °FClear.10 mph19%29.75 "Hg8 mi
8:44 pm79 °FClear.6 mph9%30.06 "Hg8 mi
7:59 pm82 °FSunny.14 mph7%30.04 "Hg8 mi
Weather by CustomWeather, © 2017

See weather overviewHow to use our weather pages